Temperature
4 5 5 5 5 4 4 4 4 4 4 7 8 8 8 8 6 5 5 4 4 4 4 5 5 5 5 6 6 6 6 7 7 7 7 7 7 7 7 7 7 7 6 6
4 5 4 4 4 4 4 5 5 5 6 8 8 8 8 7 5 3 3 3 3 3 3 4 4 4 4 4 4 4 5 5 6 6 6 6 6 6 6 6 5 5 4 3
4 4 5 4 5 5 4 5 5 6 7 8 7 7 7 5 4 2 2 2 1 2 2 2 2 2 2 2 2 3 3 3 4 4 4 4 4 4 4 4 3 2 2 1
4 5 4 6 7 5 5 6 6 6 7 7 7 7 6 5 3 2 2 1 1 1 1 1 1 1 1 1 1 1 2 2 2 2 3 2 2 2 2 1 1 0 0 0
5 5 5 6 7 6 6 7 7 7 7 7 8 6 5 5 3 2 1 1 1 1 0 1 0 0 0 0 0 0 0 0 1 1 1 1 1 1 0 0 0 -0 0 0
5 5 5 8 8 8 7 8 9 7 7 7 6 6 6 5 3 2 2 1 1 1 1 1 0 -0 -0 -0 -0 -0 -0 -0 -0 0 0 0 0 -0 -0 -0 0 0 0 0
5 5 5 6 7 8 8 9 10 9 8 7 6 6 6 5 4 3 2 2 2 1 1 1 1 0 0 0 -0 -0 -0 0 0 0 0 -0 -0 -0 0 0 0 0 -0 -0
6 6 5 7 7 7 9 9 9 8 8 7 7 7 6 5 4 3 3 3 3 2 2 2 1 1 1 1 1 1 1 1 0 0 0 0 0 -0 -0 -0 -0 -1 -1 -1
5 6 7 8 8 9 9 9 9 8 8 7 6 6 6 5 4 4 4 4 3 3 3 2 2 1 2 1 1 1 1 1 1 0 -0 -0 -0 -0 -1 -1 -1 -1 -2 -2
5 5 6 8 9 9 9 9 9 8 7 7 6 6 6 5 5 4 4 4 4 3 3 3 2 2 2 1 1 1 1 1 0 -0 -0 -1 -1 -1 -1 -2 -2 -2 -2 -3
5 6 7 9 9 9 9 9 9 8 8 7 6 6 6 6 5 5 4 4 4 3 3 3 2 2 2 1 1 1 1 0 -0 -0 -1 -1 -1 -1 -2 -2 -2 -3 -3 -4
5 6 6 7 8 8 8 8 8 8 8 7 6 6 6 5 5 5 4 4 4 4 3 3 2 2 1 1 0 0 0 -0 -0 -1 -1 -1 -2 -2 -2 -3 -3 -3 -4 -4
6 6 6 7 8 8 8 8 8 7 7 6 6 5 5 5 5 4 4 4 4 4 3 3 2 2 1 1 -0 -0 -0 -1 -1 -1 -2 -2 -2 -3 -3 -3 -4 -4 -5 -6
5 5 6 6 6 7 7 7 7 7 6 5 5 5 4 4 4 4 4 4 3 3 3 2 2 1 1 0 -0 -1 -1 -1 -1 -2 -2 -2 -3 -3 -3 -4 -4 -5 -6 -7
4 4 4 5 6 6 6 6 6 6 5 5 4 4 4 3 3 3 3 3 3 3 3 2 2 1 1 0 -1 -1 -1 -1 -2 -2 -2 -3 -3 -3 -4 -5 -5 -6 -7 -7
3 4 4 4 4 5 5 5 5 5 4 4 4 3 3 2 2 2 2 3 3 3 3 2 1 1 0 -0 -1 -1 -1 -1 -2 -2 -3 -3 -4 -4 -5 -5 -6 -7 -8 -8
1 1 2 2 3 4 4 5 5 4 4 3 3 3 2 2 2 2 2 2 2 2 2 1 1 0 -0 -0 -1 -1 -2 -2 -2 -3 -3 -4 -4 -5 -6 -6 -7 -8 -9 -9
-0 -0 0 1 1 3 4 4 5 4 4 3 3 2 2 2 2 2 2 2 2 1 1 1 0 -0 -1 -1 -1 -1 -2 -2 -3 -3 -4 -4 -5 -6 -7 -8 -8 -9 -9 -10
-0 0 0 1 2 3 4 4 5 4 4 3 3 3 3 2 2 2 2 2 2 2 1 0 -0 -1 -1 -1 -2 -2 -2 -3 -3 -4 -5 -5 -6 -7 -8 -8 -9 -9 -10 -10
0 0 1 2 2 3 3 4 4 4 3 3 2 2 3 3 2 2 2 2 2 1 0 -0 -0 -1 -1 -2 -2 -3 -3 -4 -4 -5 -5 -6 -7 -8 -8 -9 -9 -10 -10 -10
1 1 1 2 2 2 3 3 3 3 2 2 2 2 3 3 2 2 2 2 1 1 -0 -1 -1 -1 -2 -2 -3 -3 -4 -4 -5 -5 -6 -7 -8 -8 -9 -9 -10 -10 -10 -10
1 1 1 1 2 2 2 2 2 2 2 2 2 2 2 2 2 2 2 2 1 0 -0 -1 -1 -2 -2 -3 -3 -4 -4 -4 -5 -6 -6 -7 -8 -9 -9 -10 -10 -10 -10 -10
1 0 1 1 1 1 1 1 1 1 1 1 1 1 2 2 2 2 2 1 1 -0 -1 -1 -2 -2 -3 -3 -3 -4 -4 -5 -5 -6 -7 -8 -8 -9 -9 -9 -10 -10 -9 -9
0 0 0 0 0 0 0 0 0 0 0 1 1 1 1 1 1 1 1 1 0 -0 -1 -1 -2 -2 -3 -3 -4 -4 -5 -5 -6 -6 -7 -8 -8 -9 -9 -9 -9 -9 -9 -9
-0 -0 -0 -0 -0 -0 -1 -1 -0 -0 -0 -0 0 0 1 1 1 1 0 0 -0 -0 -1 -2 -2 -3 -3 -3 -4 -4 -5 -5 -6 -7 -7 -7 -8 -8 -9 -9 -9 -9 -9 -8
-1 -1 -1 -1 -1 -1 -1 -1 -1 -1 -1 -1 -1 -0 -0 -0 0 -0 -1 -1 -1 -1 -1 -2 -2 -3 -3 -4 -4 -4 -5 -6 -6 -6 -7 -7 -8 -8 -8 -8 -8 -8 -8 -8
-1 -1 -1 -1 -2 -2 -2 -2 -2 -2 -2 -3 -2 -2 -1 -1 -1 -1 -1 -1 -2 -1 -2 -2 -3 -3 -4 -4 -4 -5 -5 -6 -6 -6 -7 -7 -7 -8 -8 -8 -8 -8 -8 -8
Wind_Speed
3 2 4 6 7 10 9 9 8 8 8 15 16 16 14 9 7 9 10 11 11 11 11 10 10 10 10 10 9 8 6 4 3 4 6 8 10 11 12 12 13 13 14 14
2 1 3 6 9 11 10 9 11 11 14 17 13 9 8 6 7 8 10 11 11 11 11 10 10 10 10 10 9 8 7 7 7 9 10 11 12 13 14 14 14 15 15 15
2 4 4 7 10 14 8 8 9 12 12 12 11 10 7 5 5 7 8 9 9 9 9 9 9 9 9 9 9 9 10 10 11 12 13 13 14 14 14 14 15 14 14 15
1 3 4 6 3 8 8 8 10 10 12 11 10 7 2 1 3 5 6 6 7 7 8 7 8 8 7 8 9 10 10 11 11 13 14 14 14 14 14 12 13 13 14 14
1 3 7 8 3 7 7 6 8 13 15 12 6 4 2 1 1 2 3 4 4 6 6 7 7 7 7 8 9 10 10 10 10 11 13 13 13 13 11 12 12 12 11 11
3 2 5 4 1 4 5 3 4 7 10 7 2 3 3 3 2 2 2 3 4 5 6 7 7 7 8 8 9 9 9 9 10 10 12 12 12 11 10 10 11 10 10 9
5 5 7 7 3 4 3 3 4 4 7 5 5 5 3 5 3 2 2 4 5 6 7 7 7 7 9 9 9 8 9 10 11 11 11 11 10 10 10 10 10 10 10 8
6 6 8 4 6 6 4 4 4 4 5 5 5 4 5 5 4 3 3 4 5 5 6 7 7 7 8 9 8 8 10 11 11 10 9 9 10 9 9 9 10 9 8 7
8 9 5 2 6 6 4 5 5 4 4 4 5 6 6 5 5 3 4 4 4 5 6 7 7 7 8 6 7 8 10 10 10 10 9 8 8 8 7 6 6 6 6 6
5 8 7 8 8 7 6 7 6 5 5 5 6 6 7 7 6 5 4 4 4 6 6 6 6 7 6 6 7 8 10 8 8 8 8 7 6 6 6 6 5 5 5 4
6 6 7 5 3 4 5 6 6 4 4 6 7 7 8 7 7 6 5 4 4 5 6 6 6 6 6 6 7 9 8 7 7 7 7 7 7 6 6 4 5 5 4 3
5 4 3 7 7 6 7 7 7 5 3 4 7 8 8 7 7 6 6 5 6 6 6 6 6 6 5 6 6 8 7 6 5 5 5 6 6 6 9 7 9 8 5 3
3 4 5 9 8 5 6 6 5 5 5 5 5 7 8 7 7 7 7 7 7 7 7 6 6 6 5 5 6 7 7 6 5 5 5 4 4 4 3 5 8 8 8 6
1 4 5 5 6 8 6 3 1 1 2 4 5 6 7 7 7 8 8 7 7 8 7 7 7 5 4 6 7 7 7 7 6 4 4 4 4 3 2 2 2 3 5 7
2 4 7 10 10 7 3 1 1 2 2 3 5 7 8 8 8 8 8 8 8 8 7 7 7 5 5 6 7 7 6 5 5 4 4 4 3 3 3 3 2 2 3 4
9 8 7 7 8 6 4 4 5 5 5 5 5 6 7 7 8 8 8 9 9 8 8 8 7 6 6 7 7 6 5 8 6 4 4 3 3 2 2 2 1 2 2 3
7 7 6 8 9 9 7 7 7 7 6 7 7 7 8 8 8 7 7 6 6 7 7 7 7 6 6 7 7 5 5 5 7 5 3 3 2 1 1 0 1 2 3 4
7 9 9 11 11 11 10 8 7 7 7 7 8 8 9 10 9 8 7 7 7 6 5 6 7 7 6 6 6 5 5 4 3 3 2 2 1 1 0 1 2 3 3 4
7 8 9 9 10 10 9 7 6 6 7 9 10 9 8 8 8 9 8 8 8 7 6 6 11 8 7 7 7 5 5 4 3 2 2 2 2 1 1 2 2 3 3 3
7 8 9 9 8 6 5 2 3 6 7 9 9 8 8 8 9 9 9 7 5 4 7 8 8 7 6 7 8 5 5 4 4 3 2 2 2 2 2 3 3 3 4 4
9 9 10 10 9 7 5 1 3 5 6 8 8 8 8 8 9 9 8 6 5 7 9 11 7 6 6 6 7 5 4 4 3 3 3 3 2 3 3 3 3 4 4 4
8 8 10 9 9 7 6 3 2 4 5 6 6 7 8 8 9 7 6 5 7 11 8 6 6 8 9 8 5 5 4 4 3 3 3 3 3 3 3 4 4 4 4 5
6 7 8 9 8 6 5 3 1 2 4 6 7 8 8 7 7 7 6 5 7 13 9 6 10 13 13 7 5 5 5 4 4 4 3 3 3 3 4 4 4 5 5 5
6 7 7 7 6 6 6 5 3 1 2 4 5 6 7 6 5 4 3 10 14 14 8 11 15 15 12 5 5 5 5 4 4 4 4 3 3 3 4 4 5 5 5 6
5 6 6 7 7 5 5 5 3 1 0 1 3 5 5 4 5 5 5 8 14 14 7 12 16 15 8 6 5 5 5 5 5 5 4 4 4 4 4 5 5 5 6 6
5 5 4 4 4 4 4 4 3 2 1 1 2 3 3 3 4 5 5 7 10 12 8 6 8 10 6 6 6 5 5 4 4 4 4 4 4 5 5 5 7 6 6 6
4 4 4 4 4 5 4 4 3 3 3 3 3 3 4 4 4 5 6 7 7 7 6 6 6 7 6 6 5 5 4 4 4 4 4 4 4 5 5 6 6 6 5 6
Wind_Direction
230 245 183 204 193 188 196 197 207 238 248 276 287 295 302 311 328 331 330 335 338 338 341 347 349 348 347 343 343 341 347 0 27 82 102 107 109 111 113 114 115 114 113 112
307 317 234 237 223 206 212 220 237 261 278 275 283 292 297 314 329 330 332 337 340 344 349 354 353 353 357 360 360 8 28 39 57 77 88 94 99 101 102 104 106 108 110 110
289 299 308 260 225 203 200 206 204 236 250 271 288 295 303 312 327 326 330 336 340 343 350 356 358 2 8 11 19 38 48 55 65 77 82 86 94 97 99 101 103 105 106 105
298 349 265 246 207 182 198 228 214 236 257 271 277 295 273 257 321 325 333 337 342 348 358 5 8 15 24 31 39 50 59 65 72 82 86 89 91 94 96 100 102 103 102 102
217 297 285 296 226 167 179 257 223 231 255 270 290 311 265 150 50 343 342 350 352 359 7 15 20 26 37 43 47 53 58 66 74 85 91 93 95 95 97 100 99 99 100 102
189 259 262 256 296 169 141 274 245 217 251 270 294 302 275 143 109 57 34 23 17 15 23 27 26 33 46 47 50 52 56 64 70 78 84 88 91 94 94 96 97 96 92 91
206 239 266 254 248 134 160 239 282 245 256 253 218 219 147 135 124 96 73 60 47 39 37 33 33 45 52 48 47 52 62 68 71 76 82 86 88 88 92 93 93 91 89 81
186 213 253 241 142 175 229 267 277 270 261 247 220 150 140 146 138 119 96 78 66 58 49 42 45 59 62 53 52 63 70 71 70 71 75 81 86 85 88 96 95 93 91 80
199 218 238 223 217 247 251 262 264 252 260 236 202 184 166 159 152 135 114 98 83 78 67 54 53 65 74 65 69 76 77 75 74 74 72 76 87 90 82 79 89 88 87 82
242 259 258 262 264 270 251 239 250 249 249 206 201 184 167 161 159 149 132 113 103 95 86 72 64 69 75 78 82 86 84 78 76 77 72 62 67 74 82 84 88 91 93 93
241 275 303 297 279 290 279 255 259 258 227 207 191 181 171 165 163 157 142 128 118 113 107 98 87 79 78 85 95 93 86 82 78 77 78 73 72 78 87 88 110 110 113 123
229 245 254 279 289 302 283 268 258 241 223 196 188 179 164 159 156 151 146 139 131 124 120 113 103 95 90 96 104 107 99 88 84 84 81 80 78 72 79 87 86 97 125 136
274 311 267 268 286 295 282 275 257 226 217 201 186 169 157 150 150 147 148 150 148 141 134 127 117 109 108 111 109 107 109 105 94 94 92 92 93 95 80 59 64 59 50 38
2 352 309 308 310 312 290 289 245 207 204 184 164 152 146 141 146 152 157 155 146 140 136 135 129 127 131 123 114 108 105 107 106 100 100 100 101 100 96 82 41 11 14 17
13 332 281 286 292 291 278 228 220 221 179 157 154 153 154 155 159 157 151 145 139 137 141 142 141 145 142 128 119 115 111 110 110 111 107 103 99 92 80 74 62 17 355 354
311 299 289 292 301 299 275 248 243 233 201 185 174 168 162 152 146 144 147 150 153 160 161 157 157 157 146 131 121 117 123 133 130 121 113 104 97 93 82 63 35 355 331 315
307 313 321 315 312 304 278 249 238 226 201 190 181 160 145 139 139 145 147 147 148 151 158 158 153 146 138 133 128 126 124 134 132 121 118 118 111 106 108 121 290 293 291 297
274 282 284 286 288 289 282 259 231 211 196 183 160 155 158 162 165 159 147 133 126 127 141 144 141 135 131 130 127 127 126 126 129 131 128 139 142 144 204 258 275 284 287 302
308 304 303 298 291 282 273 256 225 195 172 160 163 171 171 166 158 152 148 150 156 163 171 161 154 139 134 143 134 125 130 133 132 132 142 188 153 186 241 262 271 278 282 286
334 329 326 322 322 314 296 268 176 159 158 159 160 160 162 159 154 156 160 170 180 174 158 160 147 140 140 148 139 130 137 146 153 160 169 179 206 240 257 268 272 276 279 282
344 342 344 344 344 350 355 32 141 152 157 163 168 172 168 161 159 161 167 180 177 154 158 162 149 146 147 151 142 135 144 155 167 181 195 208 228 249 261 270 279 283 286 289
350 350 349 349 352 355 360 20 107 146 158 164 163 159 159 164 168 172 184 178 164 169 163 155 151 162 164 150 135 144 153 164 176 187 201 215 231 250 263 271 276 281 285 287
352 350 350 349 346 343 355 17 59 160 178 180 178 178 178 176 175 177 190 176 162 173 165 163 171 172 166 148 147 154 162 174 189 204 213 222 235 248 261 272 273 276 281 283
354 353 347 342 346 360 2 355 350 290 202 188 187 183 176 171 184 190 156 171 177 175 169 177 177 176 164 143 152 160 172 186 199 212 223 234 244 254 261 266 272 274 274 279
348 344 350 357 2 353 339 335 341 344 221 195 188 185 184 182 181 177 164 172 178 171 166 181 181 175 153 149 162 170 181 197 205 210 220 234 248 257 261 264 266 271 275 275
349 344 338 334 333 328 329 328 319 302 271 240 218 193 181 166 155 157 165 173 178 172 167 168 167 159 148 160 167 177 189 211 233 226 221 236 250 257 262 266 270 269 271 272
335 334 335 336 337 338 330 320 305 286 259 234 229 203 183 170 166 169 170 170 167 160 157 151 142 143 153 161 169 180 192 204 215 224 232 240 248 255 261 266 267 270 272 275
Height
1487 1485 1486 1487 1488 1491 1493 1494 1496 1489 1484 1470 1464 1461 1458 1456 1453 1450 1447 1443 1439 1435 1431 1427 1423 1420 1417 1414 1411 1409 1407 1406 1405 1406 1407 1409 1411 1414 1417 1420 1423 1427 1430 1434
1487 1485 1486 1486 1484 1484 1486 1486 1485 1482 1476 1462 1459 1458 1456 1454 1451 1448 1445 1442 1438 1434 1430 1426 1423 1419 1415 1412 1409 1406 1404 1403 1403 1403 1405 1407 1409 1412 1415 1418 1421 1425 1429 1433
1488 1485 1482 1482 1474 1476 1478 1476 1476 1476 1468 1459 1458 1456 1454 1452 1449 1447 1444 1441 1437 1433 1430 1426 1423 1420 1416 1412 1409 1406 1404 1403 1402 1403 1404 1407 1409 1411 1414 1417 1421 1425 1430 1435
1486 1483 1485 1470 1462 1465 1468 1467 1467 1465 1460 1457 1456 1454 1451 1450 1448 1446 1443 1440 1437 1433 1430 1427 1424 1421 1417 1414 1411 1408 1406 1405 1405 1406 1407 1409 1411 1413 1417 1420 1424 1428 1433 1437
1482 1482 1477 1465 1459 1462 1465 1463 1459 1460 1457 1454 1453 1452 1449 1449 1447 1445 1443 1440 1437 1434 1431 1428 1425 1423 1420 1416 1414 1412 1410 1410 1410 1410 1411 1413 1415 1418 1421 1424 1428 1433 1437 1441
1479 1479 1475 1462 1457 1456 1460 1460 1454 1454 1453 1451 1452 1453 1450 1448 1446 1444 1442 1439 1437 1434 1432 1430 1428 1425 1423 1421 1419 1417 1416 1416 1416 1416 1417 1419 1421 1424 1427 1431 1434 1437 1441 1443
1475 1476 1471 1458 1455 1457 1462 1458 1452 1450 1449 1448 1449 1449 1448 1446 1445 1444 1442 1440 1438 1436 1434 1432 1431 1430 1428 1426 1425 1424 1423 1423 1423 1424 1425 1427 1429 1432 1434 1436 1438 1441 1442 1444
1469 1472 1469 1453 1454 1456 1454 1450 1449 1447 1446 1445 1444 1444 1444 1444 1444 1443 1442 1441 1439 1438 1437 1436 1435 1434 1433 1432 1431 1431 1431 1431 1431 1432 1433 1435 1436 1438 1439 1441 1442 1444 1445 1446
1462 1460 1452 1450 1450 1449 1449 1447 1446 1445 1443 1442 1441 1442 1442 1443 1443 1443 1443 1442 1441 1441 1440 1440 1439 1439 1438 1438 1438 1438 1438 1438 1439 1439 1440 1441 1442 1443 1444 1445 1445 1446 1447 1448
1456 1451 1448 1447 1447 1446 1445 1444 1443 1441 1440 1439 1439 1439 1440 1441 1442 1442 1442 1442 1442 1442 1443 1443 1443 1443 1443 1443 1443 1444 1444 1444 1444 1444 1445 1445 1446 1446 1446 1447 1447 1448 1448 1448
1450 1447 1445 1443 1444 1444 1442 1441 1440 1438 1437 1436 1436 1436 1437 1438 1440 1441 1442 1442 1443 1444 1444 1445 1445 1446 1446 1447 1448 1448 1448 1448 1448 1448 1448 1448 1448 1449 1449 1449 1449 1449 1448 1448
1448 1445 1445 1443 1441 1441 1439 1437 1436 1435 1433 1433 1433 1433 1435 1436 1438 1439 1441 1442 1443 1444 1445 1446 1447 1448 1449 1450 1451 1451 1451 1451 1451 1451 1451 1451 1451 1450 1450 1450 1449 1448 1447 1446
1443 1442 1441 1439 1438 1437 1435 1434 1433 1431 1430 1429 1430 1430 1432 1433 1435 1437 1439 1441 1443 1444 1446 1447 1448 1449 1450 1451 1452 1452 1453 1452 1452 1452 1452 1452 1452 1451 1451 1450 1449 1447 1446 1445
1440 1439 1437 1436 1434 1433 1432 1431 1429 1428 1427 1427 1427 1428 1429 1431 1433 1435 1438 1440 1442 1444 1446 1447 1449 1450 1451 1452 1452 1453 1453 1453 1453 1453 1453 1452 1452 1451 1450 1449 1448 1446 1445 1443
1436 1436 1434 1432 1430 1429 1428 1427 1426 1425 1424 1424 1424 1425 1427 1429 1431 1433 1436 1438 1440 1443 1445 1447 1449 1450 1451 1452 1452 1453 1453 1453 1453 1453 1453 1452 1452 1451 1449 1448 1446 1444 1442 1441
1431 1430 1429 1427 1426 1425 1424 1424 1423 1423 1422 1422 1422 1423 1425 1427 1429 1432 1434 1436 1439 1441 1444 1446 1448 1450 1451 1451 1452 1453 1453 1453 1453 1453 1452 1452 1450 1449 1447 1446 1444 1442 1440 1439
1427 1425 1423 1422 1421 1420 1420 1420 1420 1419 1419 1419 1420 1421 1423 1425 1427 1429 1432 1434 1437 1441 1443 1446 1448 1449 1450 1451 1452 1452 1453 1453 1452 1452 1451 1450 1449 1447 1445 1443 1441 1440 1438 1437
1424 1423 1421 1419 1417 1416 1415 1415 1415 1415 1416 1417 1418 1419 1420 1422 1424 1427 1430 1433 1436 1439 1442 1444 1447 1448 1449 1450 1451 1452 1452 1452 1451 1451 1449 1448 1446 1444 1442 1440 1439 1437 1435 1434
1421 1419 1417 1416 1414 1412 1411 1411 1411 1411 1412 1413 1414 1416 1418 1420 1423 1426 1428 1431 1434 1437 1440 1443 1445 1447 1448 1449 1450 1450 1450 1450 1449 1448 1447 1445 1443 1442 1440 1438 1436 1434 1433 1431
1419 1417 1415 1413 1411 1410 1408 1408 1408 1408 1409 1411 1412 1414 1416 1418 1421 1424 1427 1430 1433 1436 1439 1441 1444 1445 1447 1448 1448 1449 1449 1448 1447 1446 1444 1442 1441 1439 1437 1435 1433 1432 1430 1428
1417 1415 1413 1411 1409 1408 1407 1406 1406 1406 1407 1408 1410 1411 1414 1417 1419 1422 1425 1428 1432 1434 1437 1439 1442 1443 1445 1446 1446 1447 1446 1446 1444 1443 1442 1440 1438 1436 1434 1432 1430 1429 1427 1425
1416 1414 1412 1410 1409 1407 1406 1405 1405 1405 1406 1407 1408 1409 1412 1414 1417 1420 1423 1427 1430 1432 1435 1437 1439 1441 1442 1443 1444 1444 1444 1443 1442 1440 1439 1437 1435 1433 1431 1429 1427 1426 1424 1422
1416 1414 1412 1410 1409 1407 1406 1405 1405 1405 1405 1405 1406 1407 1410 1413 1416 1418 1421 1424 1427 1429 1432 1434 1436 1438 1439 1440 1441 1441 1441 1440 1439 1437 1436 1434 1432 1430 1428 1426 1425 1423 1421 1420
1415 1414 1412 1410 1409 1407 1406 1405 1404 1404 1403 1403 1404 1406 1408 1411 1413 1416 1419 1422 1424 1427 1429 1431 1433 1435 1436 1438 1438 1438 1438 1437 1436 1434 1433 1431 1429 1427 1425 1424 1422 1421 1419 1418
1415 1413 1411 1410 1408 1406 1405 1404 1403 1403 1402 1402 1403 1404 1406 1408 1411 1414 1416 1419 1421 1423 1426 1428 1430 1432 1433 1435 1435 1435 1435 1434 1433 1431 1430 1428 1427 1425 1423 1422 1420 1419 1418 1416
1413 1411 1410 1408 1407 1405 1404 1403 1402 1401 1401 1400 1401 1402 1403 1405 1407 1409 1412 1415 1417 1420 1422 1425 1426 1428 1430 1431 1432 1432 1432 1431 1430 1429 1427 1426 1425 1423 1422 1420 1419 1418 1416 1414
1411 1410 1408 1407 1405 1404 1402 1401 1400 1399 1399 1398 1398 1399 1400 1401 1403 1405 1408 1410 1413 1416 1419 1421 1423 1425 1427 1428 1429 1429 1428 1428 1427 1426 1425 1424 1423 1422 1420 1419 1418 1416 1414 1413